Location: Engen
(47.8553°N, 8.7734°E)
Time: 12:41:35
(UTC+00:00)

Daily predictions for brighter satellites

Satellite Brightness Start Highest point End
(mag) Time Altitude Azimuth Time Altitude Azimuth Time Altitude Azimuth
SL-24 R/B 4.4 16:45:11 10° SSE 16:49:43 86° ENE 16:54:48 10° NNW
Cosmos 1626 Rocket 4.0 16:46:11 10° SSE 16:50:20 42° E 16:54:32 10° NNE
Cosmos 1092 Rocket 4.4 16:45:34 10° SSE 16:51:11 39° E 16:56:49 10° NNE
Cosmos 2263 Rocket 4.1 16:47:45 10° W 16:52:17 24° NW 16:56:51 10° N
Cosmos 923 Rocket 4.2 16:48:08 10° NNW 16:53:30 85° WSW 16:58:48 10° SSE
Cosmos 1898 Rocket 3.9 16:48:34 10° S 16:53:31 44° ESE 16:58:28 10° NE
CZ-4C R/B 3.1 16:52:44 10° N 16:55:55 69° WNW 16:59:06 10° SSW
TELKOM 3 3.1 16:54:10 10° WNW 16:56:13 45° N 16:58:25 10° E
Cosmos 1680 Rocket 3.5 16:52:31 10° NNW 16:57:48 82° ENE 17:03:00 10° SSE
Nadezhda 4 Rocket 4.0 16:53:40 10° S 16:59:50 73° E 17:06:00 10° NNE
Meteor 2-10 Rocket 4.2 16:55:13 10° NNW 17:00:32 61° W 17:05:36 10° S
Cosmos 1328 4.5 16:59:01 10° SSE 17:02:36 33° E 17:06:11 10° NNE
CZ-4B R/B 2.1 17:01:27 10° NNE 17:04:26 30° E 17:07:19 10° SSE
Landsat 5 3.8 17:01:48 10° N 17:05:38 61° WNW 17:09:22 10° SSW
CZ-2D R/B 3.7 17:02:12 10° SE 17:05:46 39° ENE 17:09:21 10° N
MOS 1 Rocket 3.9 17:02:19 10° NNE 17:06:07 30° E 17:09:56 10° SSE
Cosmos-2242 3.9 17:05:33 10° NNE 17:09:16 28° ENE 17:12:59 10° SE
NOAA 11 4.5 17:04:21 10° S 17:09:51 77° WSW 17:15:23 10° NNW
NOSS 3-1 (C) 4.2 17:04:26 10° NW 17:11:54 87° SW 17:20:36 10° SE
COSMO-SKYMED 1 3.0 17:09:25 10° NNE 17:13:34 43° E 17:17:42 10° S
BREEZE-M DEB (TANK) 1.8 17:13:09 10° WNW 17:15:26 59° N 17:17:14 15° E
Cosmos 1937 Rocket 3.7 17:11:02 10° S 17:16:09 51° ESE 17:21:18 10° NNE
Cosmos 1758 Rocket 4.3 17:13:04 10° SSE 17:17:04 33° E 17:21:07 10° NNE
Aureole 3 3.1 17:14:03 10° NNW 17:17:06 63° W 17:20:02 10° S
Okean 1-7 Rocket 4.4 17:13:36 10° SSW 17:18:05 57° WNW 17:22:36 10° N
USA 290 2.6 17:18:21 10° N 17:21:22 38° ENE 17:24:23 10° SE
NOSS 2-1 (C) 3.0 17:20:48 10° SW 17:24:07 76° NW 17:27:19 12° NE
Cosmos 1833 Rocket 2.7 17:19:42 10° NNW 17:25:18 61° ENE 17:30:50 10° SE
CZ-4 R/B 4.5 17:21:40 10° SSE 17:25:44 58° ENE 17:29:50 10° N
H-2A R/B 2.4 17:23:30 10° SE 17:28:14 41° ENE 17:33:08 10° N
Meteor 1-21 Rocket 4.4 17:24:09 10° SSW 17:29:41 78° WNW 17:35:19 10° N
NOSS 2-1 (D) 3.2 17:26:46 10° SW 17:30:04 66° NW 17:33:05 13° NE
Cosmos 1939 Rocket 3.1 17:26:25 10° S 17:30:29 73° WSW 17:34:32 10° NNW
H-2A R/B 2.8 17:26:28 10° N 17:30:46 55° WNW 17:34:57 10° SSW
Helios 1A Rocket 3.7 17:27:11 10° SE 17:30:49 31° ENE 17:34:29 10° N
Cosmos 2344 4.3 17:22:37 10° NW 17:31:46 78° NE 17:44:35 10° SE
USA 229 DEB 4.0 17:26:04 10° NW 17:33:22 86° SW 17:41:05 10° SE
USA 229 4.0 17:26:10 10° NW 17:33:29 87° SW 17:41:13 10° SE
Cosmos 389 Rocket 4.4 17:31:08 10° NNE 17:32:01 14° NE 17:32:01 14° NE
Cosmos 1602 Rocket 3.5 17:29:27 10° S 17:33:48 86° E 17:38:14 10° N
SeaSat 1 4.2 17:30:01 10° N 17:34:09 28° NW 17:38:18 10° WSW
Cosmos 44 3.9 17:29:23 10° SW 17:34:09 57° NW 17:39:18 10° NNE
CZ-3B R/B 1.9 17:32:07 10° WNW 17:34:42 89° NNE 17:42:19 10° ESE
Cosmos 2026 Rocket 4.0 17:28:59 10° S 17:35:03 65° E 17:41:15 10° NNE
CSL-04 DEB 4.4 17:31:19 10° NNE 17:35:29 88° W 17:39:28 10° SSW
Feng Yun 1-1 Rocket 4.3 17:30:17 10° SSE 17:35:47 88° WSW 17:41:28 10° NNW
SJ 16-02 3.1 17:33:16 10° WSW 17:37:12 31° WNW 17:41:09 10° N
SKYMED 3 4.5 17:33:18 10° NNE 17:37:41 76° ESE 17:42:01 10° S
YAOGAN 1 2.7 17:35:37 10° SE 17:39:47 49° ENE 17:43:58 10° N
Cosmos 990 Rocket 4.3 17:35:23 10° SSW 17:40:33 67° WNW 17:45:44 10° NNE
Cosmos 1689 Rocket 2.9 17:41:34 28° ESE 17:41:34 28° ESE 17:43:57 10° SSE
Cosmos 1553 Rocket 4.1 17:35:46 10° N 17:42:02 53° ENE 17:48:10 10° SSE
Cosmos 1844 Rocket 4.1 17:37:21 10° WSW 17:42:34 37° NW 17:47:47 10° NNE
Aureole 3 Rocket 2.4 17:39:35 10° N 17:42:50 80° E 17:46:51 10° SSE
COSMOS 2406 3.3 17:38:51 10° NNW 17:44:41 89° WSW 17:50:26 10° SSE
Cosmos 2082 Rocket 2.4 17:39:30 10° NNW 17:45:05 50° NE 17:50:36 10° SE
HJ-1C 4.1 17:47:04 30° E 17:47:27 31° ENE 17:50:29 10° N
Cosmos 1703 4.0 17:44:05 10° SSW 17:47:52 54° WNW 17:51:42 10° N
Cosmos 1825 Rocket 3.7 17:44:37 10° S 17:48:52 51° E 17:53:10 10° NNE
Meteor 1-27 4.2 17:43:23 10° N 17:48:54 55° ENE 17:54:19 10° SSE
NOSS 3-1 (A) 4.2 17:41:33 10° NW 17:49:03 83° SW 17:57:45 10° SSE
IRS-1C Rocket 4.1 17:44:02 10° SSE 17:49:18 90° W 17:54:36 10° NNW
X-37B 1.8 17:46:54 10° W 17:49:53 36° SSW 17:51:36 20° SE
deb Kosmos-1763 4.4 17:48:24 10° N 17:51:49 40° ENE 17:52:52 31° ESE
Cosmos 1812 Rocket 4.1 17:47:44 10° NNW 17:52:03 59° W 17:56:19 10° S
ISS -3.0 17:49:37 10° WNW 17:52:52 42° N 17:53:50 32° NE
Okean O Rocket 4.0 17:51:40 10° SSW 17:55:25 27° W 17:59:11 10° NW
ATLAS 2AS CENTAUR R/B 4.4 17:50:09 10° NW 17:56:17 24° N 18:00:55 14° NE
NOAA 15 4.5 17:51:35 10° SSE 17:56:49 76° ENE 18:02:07 10° NNW
ATLAS 5 CENTAUR R/B 4.0 17:55:55 10° NW 17:58:24 14° N 18:00:57 10° NNE
CZ-4 R/B 1.3 17:55:25 10° SSE 17:59:27 90° ENE 18:03:26 10° NNW
Iridium 4 Rocket 3.5 17:54:54 10° N 18:00:20 82° W 18:05:14 10° S
SKYMED 2 4.0 17:57:23 10° N 18:01:42 63° WNW 18:05:59 10° SSW
ERS-2 1.9 17:58:38 14° NNE 18:01:44 77° ESE 18:05:21 10° S
CSL-04 Rocket 3.7 17:58:31 10° SE 18:03:49 56° ENE 18:09:14 10° N
Okean-O 2.6 18:02:30 10° SSE 18:06:56 87° WSW 18:11:24 10° NNW
S3M 3.9 18:02:31 10° N 18:08:34 57° ENE 18:14:35 10° SSE
CZ-4C R/B 4.1 18:04:11 10° NW 18:08:52 21° N 18:11:46 17° NE
USA 234 4.0 18:05:52 23° NE 18:09:24 40° N 18:15:25 10° WNW
Ariane Rocket 4.4 18:11:25 21° NE 18:11:25 21° NE 18:13:56 10° N
Cosmos 1340 4.2 18:08:03 10° SW 18:11:31 35° WNW 18:15:00 10° N
Cosmos 1346 Rocket 2.7 18:07:58 10° S 18:11:54 90° NNE 18:15:11 15° NNE
Cosmos 1655 Rocket 4.1 18:06:18 10° SSE 18:12:13 49° E 18:18:10 10° NNE
Cosmos 2278 Rocket 2.1 18:06:48 10° SSW 18:12:29 88° ESE 18:17:11 16° NNE
Cosmos 1953 Rocket 3.4 18:11:02 10° S 18:15:20 64° E 18:17:57 23° NNE
CZ-2C R/B 4.1 18:10:14 10° S 18:15:35 52° W 18:21:12 10° NNW
SWARM C 4.3 18:14:38 10° S 18:17:57 84° E 18:18:10 75° NNE
SWARM A 4.1 18:14:44 10° S 18:18:03 89° SE 18:18:52 49° N
SAR-Lupe-4 3.6 18:17:50 27° N 18:19:40 80° WNW 18:23:14 10° SSW
Cosmos 2292 Rocket 3.4 18:15:24 10° S 18:20:09 60° E 18:20:40 54° ENE
Cosmos 44 Rocket 3.5 18:17:58 10° SSW 18:22:42 50° ESE 18:23:19 47° E
DMSP B5D1-3 4.4 18:23:17 10° NNE 18:28:25 83° ESE 18:33:32 10° SSW
ARGOS 3.1 18:23:38 10° SSE 18:29:00 87° WSW 18:34:26 10° NNW
Meteor 2-2 Rocket 4.3 18:24:12 10° N 18:30:06 59° ENE 18:34:20 20° SSE
Cosmos 1869 3.2 18:26:41 10° N 18:30:11 68° NNE 18:30:11 68° NNE
NOSS 2-2 (D) 4.5 18:26:47 10° NW 18:31:55 55° NE 18:33:29 44° E
Cosmos 372 Rocket 4.3 18:30:57 10° SSW 18:36:07 67° WNW 18:39:58 19° NNE
CZ-4B R/B 4.2 18:34:08 10° NNW 18:36:25 18° WNW 18:38:39 10° WSW
Cosmos 468 4.4 18:32:43 10° NNW 18:38:00 87° WSW 18:41:13 24° SSE
CZ-2C R/B 2.6 18:33:45 17° NNE 18:38:06 65° E 18:43:42 10° S
Cosmos 494 Rocket 3.8 18:36:49 10° NNW 18:41:59 72° ENE 18:42:29 66° ESE
Cosmos 2150 Rocket 3.8 18:40:08 10° SSW 18:45:17 78° ESE 18:45:58 66° NE
Cosmos 1048 Rocket 4.0 18:41:50 10° NNW 18:46:58 75° WSW 18:49:36 29° S
Cosmos 2297 4.4 18:47:36 10° S 18:51:23 39° SSE 18:51:23 39° SSE
Cosmos 909 Rocket 4.4 18:53:55 10° NNW 19:00:09 50° NE 19:00:09 50° NE
SL-08 RB Rocket 4.1 18:59:19 38° SSW 19:00:47 59° W 19:05:14 10° NNW
Cosmos 2221 4.5 19:02:13 10° NNW 19:03:42 21° NNW 19:03:42 21° NNW
H-2A R/B 3.9 19:03:22 10° SSW 19:07:47 30° W 19:12:20 10° NNW
Cosmos 1125 Rocket 3.9 19:04:44 10° SSW 19:08:41 53° SSW 19:08:41 53° SSW
Cosmos 2298 Rocket 4.4 19:07:27 10° SW 19:12:42 61° WNW 19:13:35 53° NNW
Cosmos 2266 Rocket 4.1 19:08:13 10° SSW 19:14:27 74° W 19:20:36 10° N
NOSS 2-2 (C) 4.4 19:14:36 10° NW 19:20:02 83° SW 19:20:07 83° SW
Cosmos 1943 Rocket 4.5 19:22:59 10° SSW 19:23:18 12° SSW 19:23:18 12° SSW
Cosmos 2082 Rocket 3.9 19:24:01 10° NW 19:28:56 30° WSW 19:33:41 11° SSW
ISS -0.3 19:26:33 10° WNW 19:26:49 12° WNW 19:26:49 12° WNW
ATLAS 5 CENTAUR R/B 4.4 19:41:28 10° NNW 19:42:29 14° NNW 19:42:29 14° NNW
ATLAS 2AS CENTAUR R/B 4.0 19:42:56 10° NW 19:48:21 30° N 19:48:21 30° N
USA 234 3.9 19:53:13 48° NNW 19:53:13 48° NNW 19:58:09 10° NW
Cosmos 2278 Rocket 4.3 19:53:07 10° W 19:57:22 21° NW 19:59:05 19° NNW
CZ-4C R/B 4.0 19:53:06 10° NW 19:56:58 30° N 19:56:58 30° N
